sat.trackr.live / text

‹ back to catalog

STARLINK-35897

NORAD 66501 · 2025-263S

PAYLOAD ACTIVE UNKNOWN

§ Identity

Operator
Country
US
Launch date
2025-11-15
Launch site
AFETR
Launch vehicle
Mass (kg)
RCS (m²)

Purposes: comms

External: N2YO · Heavens-Above · Gunter

§ Orbital elements

Epoch: 2026-09-20T05:57:27.608544Z

Period
94.27 min
Inclination
43.0006°
Eccentricity
0.0001409
Mean motion
15.27587925 rev/d
Perigee alt
482.1 km
Apogee alt
484.0 km
Semi-major
6,861.2 km
B*
4.3879e-4
RAAN
331.9725°
Arg perigee
278.2870°
Mean anomaly
81.7822°
Rev number
4,865

§ Raw data

STARLINK-358971 66501U 25263S   26263.24823621  .00011835  00000+0  43879-3 0  99942 66501  43.0006 331.9725 0001409 278.2870  81.7822 15.27587925 48653

JSON: /api/v1/satellites/66501 · /tle

For live sub-satellite position, see the globe view (requires WebGL).

§ Visibility from observer

Set your observer location to see the next 7 days of passes ≥ 10°. The values pass through the URL so the page stays shareable.

No JS? Fill the form by hand. The geolocation button needs JavaScript.